QPF
0.03 0.04 0.04 0.05 0.06 0.06 0.05 0.06 0.06 0.05 0.05 0.04 0.03 0.03 0.03 0.01 0.01 0.02 0.03 0.03 0.02 0.01 0.02 0.02 0.03 0.02 0.02 0.02 0.01 0.02 0.02 0.03 0.03 0.02 0.02 0.02 0.01 0.03 0.05 0.03 0.02 0.03 0.03
0.02 0.03 0.04 0.05 0.07 0.09 0.09 0.09 0.09 0.07 0.06 0.06 0.05 0.04 0.03 0.03 0.02 0.02 0.02 0.03 0.03 0.02 0.01 0.01 0.02 0.02 0.02 0.02 0.01 0.02 0.02 0.03 0.02 0.02 0.03 0.03 0.02 0.02 0.04 0.05 0.03 0.02 0.02
0.03 0.03 0.03 0.04 0.06 0.07 0.09 0.11 0.12 0.10 0.08 0.07 0.07 0.05 0.03 0.03 0.03 0.02 0.02 0.03 0.03 0.02 0.02 0.01 0.01 0.01 0.02 0.01 0.01 0.01 0.01 0.02 0.02 0.03 0.04 0.03 0.02 0.02 0.02 0.03 0.04 0.04 0.03
0.02 0.04 0.04 0.05 0.05 0.06 0.08 0.09 0.10 0.10 0.10 0.09 0.07 0.06 0.06 0.04 0.03 0.03 0.02 0.02 0.03 0.02 0.02 0.01 0.01 0.01 0.01 0.01 0.01 0.01 0.01 0.01 0.01 0.02 0.02 0.02 0.02 0.02 0.02 0.03 0.04 0.04 0.03
0.01 0.01 0.02 0.03 0.05 0.07 0.10 0.10 0.09 0.10 0.10 0.10 0.09 0.07 0.07 0.05 0.04 0.04 0.02 0.02 0.03 0.03 0.02 0.02 0.01 0.01 0.01 0.01 0.01 0.01 0.01 0.01 0.01 0.01 0.01 0.01 0.01 0.01 0.02 0.02 0.02 0.02 0.01
0.01 0.01 0.01 0.01 0.02 0.04 0.07 0.15 0.15 0.12 0.11 0.12 0.11 0.08 0.06 0.05 0.05 0.05 0.05 0.03 0.02 0.02 0.02 0.02 0.02 0.02 0.01 0.02 0.02 0.01 0.01 0.01 0.00 0.00 0.00 0.00 0.01 0.01 0.02 0.01 0.01 0.01 0.01
0.01 0.01 0.00 0.01 0.02 0.03 0.04 0.08 0.12 0.11 0.12 0.13 0.12 0.12 0.10 0.09 0.09 0.08 0.08 0.06 0.04 0.02 0.02 0.02 0.02 0.02 0.02 0.02 0.02 0.03 0.02 0.02 0.01 0.01 0.00 0.00 0.01 0.01 0.01 0.01 0.01 0.01 0.01
0.01 0.01 0.01 0.01 0.02 0.02 0.02 0.04 0.06 0.08 0.09 0.10 0.10 0.10 0.10 0.10 0.10 0.08 0.08 0.08 0.06 0.04 0.04 0.04 0.03 0.02 0.03 0.03 0.03 0.03 0.03 0.02 0.02 0.01 0.00 0.00 0.00 0.01 0.01 0.01 0.01 0.01 0.01
0.01 0.01 0.02 0.02 0.02 0.01 0.01 0.01 0.02 0.04 0.06 0.07 0.08 0.09 0.09 0.09 0.10 0.09 0.09 0.08 0.05 0.03 0.04 0.05 0.03 0.02 0.02 0.02 0.03 0.03 0.03 0.03 0.04 0.04 0.04 0.03 0.02 0.01 0.01 0.01 0.01 0.01 0.01
0.01 0.01 0.03 0.02 0.02 0.02 0.01 0.00 0.01 0.02 0.03 0.05 0.06 0.09 0.10 0.09 0.09 0.09 0.11 0.08 0.05 0.04 0.04 0.04 0.04 0.03 0.02 0.02 0.02 0.02 0.02 0.02 0.03 0.04 0.04 0.04 0.04 0.03 0.03 0.01 0.01 0.01 0.01
0.01 0.02 0.02 0.03 0.02 0.02 0.01 0.00 0.01 0.02 0.03 0.03 0.04 0.07 0.08 0.08 0.08 0.10 0.11 0.09 0.07 0.06 0.04 0.03 0.03 0.04 0.05 0.05 0.03 0.02 0.02 0.03 0.03 0.03 0.04 0.04 0.04 0.04 0.04 0.03 0.02 0.01 0.01
0.01 0.02 0.02 0.02 0.02 0.02 0.02 0.01 0.01 0.01 0.02 0.03 0.05 0.07 0.08 0.08 0.09 0.09 0.09 0.10 0.10 0.09 0.06 0.05 0.04 0.06 0.06 0.07 0.06 0.04 0.04 0.03 0.02 0.02 0.02 0.03 0.04 0.04 0.03 0.04 0.04 0.03 0.02
0.01 0.01 0.02 0.02 0.03 0.02 0.02 0.01 0.01 0.00 0.01 0.02 0.04 0.06 0.07 0.08 0.08 0.09 0.08 0.08 0.09 0.08 0.07 0.07 0.06 0.06 0.07 0.06 0.06 0.05 0.04 0.02 0.02 0.02 0.02 0.01 0.01 0.02 0.02 0.03 0.04 0.05 0.04
0.00 0.00 0.01 0.02 0.02 0.01 0.01 0.01 0.01 0.00 0.00 0.01 0.02 0.04 0.06 0.06 0.07 0.06 0.06 0.06 0.06 0.06 0.06 0.05 0.05 0.06 0.06 0.06 0.05 0.04 0.03 0.02 0.02 0.02 0.03 0.03 0.02 0.01 0.02 0.02 0.02 0.03 0.04
0.01 0.00 0.01 0.01 0.01 0.00 0.00 0.00 0.00 0.00 0.00 0.01 0.02 0.02 0.02 0.03 0.04 0.05 0.05 0.05 0.05 0.04 0.05 0.06 0.06 0.05 0.05 0.04 0.04 0.03 0.02 0.02 0.02 0.02 0.02 0.03 0.03 0.02 0.02 0.02 0.02 0.02 0.02
0.01 0.01 0.00 0.00 0.00 0.00 0.00 0.00 0.00 0.00 0.01 0.01 0.01 0.01 0.01 0.01 0.02 0.03 0.03 0.03 0.03 0.03 0.03 0.03 0.05 0.05 0.05 0.06 0.05 0.03 0.02 0.02 0.02 0.02 0.02 0.03 0.03 0.03 0.02 0.02 0.02 0.02 0.02
0.00 0.00 0.00 0.00 0.00 0.00 0.01 0.01 0.01 0.01 0.01 0.01 0.02 0.02 0.02 0.02 0.02 0.02 0.02 0.02 0.03 0.02 0.02 0.02 0.04 0.05 0.06 0.07 0.07 0.06 0.04 0.03 0.03 0.03 0.03 0.03 0.03 0.03 0.03 0.03 0.03 0.02 0.02
0.00 0.00 0.00 0.00 0.00 0.00 0.01 0.01 0.01 0.01 0.02 0.02 0.02 0.02 0.02 0.02 0.01 0.01 0.02 0.01 0.01 0.02 0.02 0.02 0.03 0.04 0.06 0.06 0.06 0.07 0.06 0.05 0.04 0.03 0.03 0.04 0.04 0.04 0.04 0.03 0.03 0.03 0.03
0.00 0.00 0.00 0.00 0.00 0.00 0.00 0.00 0.00 0.00 0.01 0.01 0.01 0.01 0.01 0.01 0.01 0.01 0.01 0.01 0.01 0.01 0.02 0.02 0.02 0.03 0.04 0.06 0.07 0.07 0.08 0.08 0.07 0.05 0.04 0.04 0.03 0.03 0.03 0.03 0.03 0.03 0.03
0.00 0.00 0.00 0.01 0.00 0.00 0.00 0.00 0.00 0.00 0.01 0.01 0.01 0.00 0.00 0.00 0.00 0.00 0.00 0.01 0.01 0.01 0.02 0.02 0.02 0.03 0.03 0.04 0.05 0.07 0.08 0.09 0.09 0.09 0.07 0.05 0.04 0.03 0.03 0.02 0.02 0.02 0.02
0.00 0.00 0.00 0.00 0.00 0.00 0.00 0.00 0.01 0.01 0.01 0.00 0.00 0.00 0.00 0.00 0.01 0.01 0.01 0.01 0.01 0.01 0.02 0.02 0.02 0.02 0.02 0.03 0.03 0.04 0.06 0.07 0.08 0.09 0.09 0.09 0.07 0.06 0.04 0.03 0.03 0.03 0.03
0.01 0.01 0.00 0.00 0.00 0.00 0.00 0.01 0.01 0.00 0.00 0.00 0.00 0.00 0.01 0.01 0.01 0.01 0.01 0.01 0.01 0.01 0.01 0.01 0.02 0.02 0.02 0.03 0.03 0.03 0.03 0.04 0.05 0.05 0.06 0.06 0.07 0.06 0.06 0.05 0.05 0.04 0.04
0.01 0.01 0.00 0.00 0.00 0.00 0.00 0.01 0.00 0.00 0.01 0.01 0.01 0.01 0.01 0.01 0.01 0.01 0.01 0.01 0.01 0.01 0.01 0.01 0.02 0.02 0.01 0.02 0.03 0.03 0.03 0.03 0.03 0.03 0.03 0.04 0.04 0.04 0.04 0.03 0.03 0.03 0.03
0.01 0.00 0.00 0.00 0.00 0.00 0.00 0.00 0.01 0.01 0.01 0.01 0.01 0.01 0.01 0.01 0.01 0.01 0.01 0.01 0.00 0.01 0.01 0.01 0.01 0.02 0.02 0.02 0.01 0.02 0.02 0.03 0.03 0.03 0.03 0.03 0.04 0.04 0.04 0.04 0.04 0.03 0.03
0.01 0.00 0.00 0.00 0.00 0.00 0.00 0.00 0.00 0.00 0.01 0.01 0.01 0.01 0.01 0.01 0.01 0.01 0.01 0.00 0.00 0.01 0.01 0.01 0.01 0.01 0.01 0.01 0.02 0.02 0.03 0.03 0.03 0.02 0.02 0.03 0.03 0.03 0.03 0.03 0.04 0.04 0.04
0.01 0.01 0.01 0.00 0.00 0.00 0.00 0.00 0.00 0.00 0.00 0.01 0.01 0.01 0.01 0.01 0.01 0.01 0.01 0.01 0.01 0.01 0.01 0.01 0.01 0.01 0.01 0.01 0.01 0.02 0.02 0.03 0.03 0.03 0.02 0.02 0.02 0.02 0.02 0.03 0.03 0.03 0.03
MSLP
1011.65 1012.14 1012.66 1013.19 1013.67 1014.10 1014.47 1014.79 1015.08 1015.36 1015.66 1015.97 1016.31 1016.65 1016.99 1017.30 1017.57 1017.80 1017.98 1018.12 1018.25 1018.38 1018.52 1018.68 1018.86 1019.06 1019.26 1019.46 1019.65 1019.81 1019.95 1020.05 1020.12 1020.13 1020.10 1020.01 1019.86 1019.68 1019.46 1019.22 1019.00 1018.82 1018.69
1011.64 1012.12 1012.62 1013.12 1013.59 1014.00 1014.35 1014.65 1014.92 1015.19 1015.47 1015.77 1016.09 1016.43 1016.77 1017.10 1017.40 1017.67 1017.90 1018.08 1018.25 1018.39 1018.52 1018.66 1018.80 1018.94 1019.09 1019.24 1019.40 1019.56 1019.71 1019.84 1019.95 1020.03 1020.05 1020.02 1019.92 1019.75 1019.54 1019.29 1019.04 1018.81 1018.63
1011.65 1012.12 1012.61 1013.08 1013.51 1013.88 1014.20 1014.48 1014.74 1014.98 1015.24 1015.53 1015.84 1016.18 1016.52 1016.87 1017.20 1017.50 1017.77 1018.00 1018.20 1018.36 1018.51 1018.63 1018.75 1018.86 1018.97 1019.09 1019.22 1019.37 1019.52 1019.68 1019.83 1019.94 1020.02 1020.03 1019.97 1019.84 1019.64 1019.39 1019.12 1018.86 1018.63
1011.62 1012.09 1012.56 1013.00 1013.39 1013.73 1014.03 1014.28 1014.51 1014.75 1015.00 1015.27 1015.58 1015.91 1016.26 1016.61 1016.96 1017.29 1017.59 1017.85 1018.08 1018.27 1018.43 1018.56 1018.67 1018.77 1018.86 1018.96 1019.07 1019.20 1019.35 1019.51 1019.67 1019.82 1019.93 1019.98 1019.96 1019.86 1019.69 1019.45 1019.18 1018.90 1018.63
1011.51 1011.99 1012.44 1012.85 1013.21 1013.52 1013.79 1014.03 1014.26 1014.49 1014.74 1015.01 1015.32 1015.65 1016.00 1016.35 1016.70 1017.04 1017.35 1017.63 1017.87 1018.08 1018.26 1018.40 1018.52 1018.62 1018.70 1018.79 1018.88 1018.99 1019.13 1019.28 1019.44 1019.59 1019.72 1019.79 1019.80 1019.74 1019.61 1019.41 1019.16 1018.88 1018.60
1011.29 1011.77 1012.21 1012.60 1012.95 1013.24 1013.50 1013.74 1013.98 1014.22 1014.49 1014.77 1015.09 1015.42 1015.76 1016.10 1016.44 1016.76 1017.06 1017.34 1017.59 1017.81 1017.99 1018.15 1018.27 1018.38 1018.46 1018.54 1018.62 1018.71 1018.82 1018.94 1019.08 1019.22 1019.34 1019.43 1019.47 1019.45 1019.36 1019.21 1019.01 1018.76 1018.50
1010.95 1011.44 1011.88 1012.27 1012.61 1012.90 1013.17 1013.43 1013.69 1013.97 1014.26 1014.57 1014.89 1015.23 1015.55 1015.87 1016.18 1016.47 1016.74 1017.00 1017.23 1017.44 1017.63 1017.79 1017.92 1018.03 1018.12 1018.19 1018.26 1018.32 1018.40 1018.49 1018.59 1018.70 1018.81 1018.91 1018.97 1018.99 1018.96 1018.87 1018.73 1018.54 1018.32
1010.53 1011.03 1011.48 1011.87 1012.22 1012.53 1012.83 1013.12 1013.42 1013.73 1014.06 1014.40 1014.74 1015.06 1015.37 1015.67 1015.93 1016.17 1016.40 1016.61 1016.82 1017.01 1017.18 1017.35 1017.49 1017.60 1017.69 1017.76 1017.81 1017.86 1017.90 1017.95 1018.01 1018.09 1018.17 1018.26 1018.34 1018.39 1018.41 1018.39 1018.32 1018.21 1018.04
1010.07 1010.59 1011.05 1011.46 1011.83 1012.17 1012.49 1012.83 1013.17 1013.52 1013.88 1014.24 1014.59 1014.91 1015.20 1015.45 1015.67 1015.87 1016.04 1016.21 1016.37 1016.53 1016.70 1016.85 1017.00 1017.12 1017.22 1017.29 1017.33 1017.35 1017.36 1017.38 1017.40 1017.44 1017.49 1017.57 1017.65 1017.73 1017.79 1017.83 1017.83 1017.79 1017.69
1009.63 1010.16 1010.64 1011.07 1011.46 1011.82 1012.18 1012.55 1012.92 1013.31 1013.69 1014.07 1014.42 1014.72 1014.99 1015.21 1015.39 1015.53 1015.66 1015.78 1015.91 1016.05 1016.19 1016.35 1016.49 1016.62 1016.72 1016.80 1016.84 1016.85 1016.84 1016.82 1016.81 1016.81 1016.84 1016.89 1016.96 1017.05 1017.15 1017.23 1017.28 1017.29 1017.24
1009.22 1009.77 1010.27 1010.71 1011.12 1011.51 1011.89 1012.28 1012.67 1013.07 1013.46 1013.84 1014.17 1014.47 1014.70 1014.89 1015.03 1015.14 1015.24 1015.33 1015.43 1015.55 1015.69 1015.84 1015.99 1016.13 1016.24 1016.32 1016.36 1016.37 1016.35 1016.31 1016.27 1016.24 1016.24 1016.26 1016.32 1016.40 1016.49 1016.59 1016.67 1016.71 1016.70
1008.85 1009.41 1009.92 1010.38 1010.80 1011.21 1011.60 1011.99 1012.38 1012.77 1013.15 1013.50 1013.82 1014.09 1014.30 1014.47 1014.59 1014.68 1014.76 1014.84 1014.93 1015.05 1015.18 1015.34 1015.49 1015.64 1015.76 1015.85 1015.90 1015.90 1015.88 1015.83 1015.76 1015.71 1015.68 1015.67 1015.70 1015.75 1015.83 1015.91 1015.98 1016.03 1016.04
1008.50 1009.07 1009.58 1010.05 1010.48 1010.88 1011.26 1011.64 1012.01 1012.37 1012.72 1013.04 1013.32 1013.56 1013.76 1013.91 1014.02 1014.11 1014.20 1014.28 1014.39 1014.51 1014.66 1014.82 1014.98 1015.13 1015.26 1015.35 1015.40 1015.41 1015.38 1015.33 1015.25 1015.18 1015.12 1015.08 1015.07 1015.08 1015.12 1015.17 1015.21 1015.24 1015.24
1008.11 1008.67 1009.19 1009.66 1010.09 1010.49 1010.86 1011.21 1011.54 1011.86 1012.16 1012.43 1012.68 1012.89 1013.06 1013.21 1013.33 1013.44 1013.54 1013.65 1013.78 1013.92 1014.08 1014.25 1014.42 1014.57 1014.70 1014.79 1014.84 1014.85 1014.82 1014.75 1014.67 1014.58 1014.50 1014.43 1014.38 1014.35 1014.35 1014.35 1014.35 1014.34 1014.31
1007.63 1008.19 1008.71 1009.18 1009.61 1009.99 1010.34 1010.66 1010.96 1011.23 1011.47 1011.69 1011.90 1012.08 1012.24 1012.38 1012.52 1012.65 1012.79 1012.94 1013.10 1013.27 1013.44 1013.62 1013.79 1013.93 1014.05 1014.13 1014.17 1014.17 1014.13 1014.07 1013.98 1013.88 1013.79 1013.69 1013.61 1013.55 1013.50 1013.45 1013.41 1013.36 1013.30
1007.04 1007.59 1008.10 1008.58 1009.01 1009.39 1009.72 1010.02 1010.27 1010.49 1010.68 1010.86 1011.02 1011.17 1011.32 1011.47 1011.63 1011.80 1011.98 1012.16 1012.36 1012.56 1012.75 1012.92 1013.08 1013.21 1013.31 1013.37 1013.39 1013.38 1013.34 1013.27 1013.18 1013.08 1012.98 1012.88 1012.79 1012.70 1012.62 1012.54 1012.46 1012.39 1012.30
1006.36 1006.88 1007.40 1007.88 1008.32 1008.70 1009.03 1009.30 1009.53 1009.71 1009.86 1010.00 1010.12 1010.25 1010.39 1010.55 1010.73 1010.94 1011.15 1011.38 1011.61 1011.83 1012.03 1012.20 1012.35 1012.46 1012.53 1012.56 1012.56 1012.54 1012.49 1012.42 1012.34 1012.25 1012.16 1012.07 1011.97 1011.88 1011.79 1011.69 1011.60 1011.51 1011.41
1005.63 1006.14 1006.65 1007.14 1007.59 1007.99 1008.32 1008.59 1008.80 1008.96 1009.08 1009.19 1009.29 1009.40 1009.54 1009.72 1009.92 1010.15 1010.40 1010.66 1010.91 1011.15 1011.36 1011.53 1011.66 1011.74 1011.79 1011.80 1011.78 1011.74 1011.69 1011.63 1011.56 1011.49 1011.42 1011.35 1011.28 1011.20 1011.11 1011.02 1010.93 1010.83 1010.72
1004.97 1005.46 1005.97 1006.47 1006.93 1007.35 1007.69 1007.97 1008.18 1008.33 1008.44 1008.53 1008.62 1008.73 1008.87 1009.05 1009.27 1009.52 1009.80 1010.08 1010.36 1010.61 1010.82 1010.99 1011.10 1011.17 1011.20 1011.19 1011.15 1011.11 1011.06 1011.01 1010.96 1010.92 1010.89 1010.85 1010.80 1010.75 1010.69 1010.61 1010.52 1010.42 1010.31
1004.49 1004.96 1005.45 1005.96 1006.44 1006.87 1007.24 1007.54 1007.76 1007.92 1008.03 1008.12 1008.20 1008.31 1008.46 1008.64 1008.88 1009.15 1009.44 1009.74 1010.03 1010.29 1010.50 1010.66 1010.77 1010.83 1010.84 1010.82 1010.78 1010.74 1010.70 1010.67 1010.65 1010.64 1010.64 1010.64 1010.62 1010.60 1010.56 1010.50 1010.42 1010.32 1010.20
1004.31 1004.74 1005.22 1005.72 1006.22 1006.67 1007.05 1007.37 1007.61 1007.78 1007.91 1008.00 1008.10 1008.21 1008.36 1008.56 1008.80 1009.08 1009.38 1009.69 1009.98 1010.24 1010.45 1010.61 1010.72 1010.76 1010.77 1010.76 1010.72 1010.69 1010.67 1010.66 1010.67 1010.68 1010.71 1010.74 1010.75 1010.75 1010.72 1010.67 1010.59 1010.48 1010.34
1004.48 1004.88 1005.34 1005.84 1006.33 1006.79 1007.19 1007.52 1007.78 1007.97 1008.12 1008.23 1008.33 1008.46 1008.61 1008.81 1009.05 1009.33 1009.63 1009.93 1010.22 1010.48 1010.68 1010.84 1010.93 1010.98 1011.00 1010.98 1010.96 1010.94 1010.94 1010.95 1010.97 1011.02 1011.06 1011.10 1011.13 1011.13 1011.10 1011.04 1010.94 1010.81 1010.63
1005.04 1005.41 1005.84 1006.32 1006.80 1007.25 1007.66 1008.00 1008.28 1008.48 1008.64 1008.77 1008.89 1009.02 1009.18 1009.38 1009.61 1009.88 1010.16 1010.45 1010.72 1010.95 1011.15 1011.29 1011.38 1011.43 1011.44 1011.44 1011.42 1011.42 1011.42 1011.44 1011.48 1011.53 1011.58 1011.62 1011.63 1011.62 1011.57 1011.48 1011.34 1011.17 1010.95
1005.93 1006.27 1006.68 1007.12 1007.58 1008.02 1008.42 1008.76 1009.04 1009.26 1009.43 1009.57 1009.70 1009.84 1010.00 1010.18 1010.40 1010.64 1010.89 1011.14 1011.38 1011.58 1011.75 1011.87 1011.94 1011.98 1011.99 1011.99 1011.98 1011.97 1011.98 1012.01 1012.04 1012.08 1012.11 1012.12 1012.11 1012.06 1011.97 1011.83 1011.65 1011.42 1011.15
1007.06 1007.37 1007.75 1008.16 1008.58 1008.99 1009.37 1009.70 1009.97 1010.19 1010.37 1010.52 1010.65 1010.79 1010.94 1011.10 1011.29 1011.49 1011.70 1011.91 1012.09 1012.25 1012.37 1012.46 1012.51 1012.52 1012.52 1012.51 1012.49 1012.48 1012.48 1012.48 1012.50 1012.51 1012.51 1012.48 1012.42 1012.32 1012.18 1011.99 1011.75 1011.46 1011.13
1008.30 1008.58 1008.92 1009.30 1009.68 1010.05 1010.40 1010.70 1010.96 1011.18 1011.35 1011.50 1011.63 1011.75 1011.88 1012.02 1012.17 1012.33 1012.48 1012.63 1012.75 1012.85 1012.92 1012.95 1012.96 1012.95 1012.92 1012.88 1012.84 1012.81 1012.79 1012.77 1012.75 1012.72 1012.66 1012.59 1012.47 1012.32 1012.11 1011.86 1011.57 1011.24 1010.87
Thickness
5667 5666 5666 5665 5665 5664 5664 5663 5662 5661 5661 5660 5659 5658 5657 5656 5656 5655 5654 5653 5652 5651 5651 5650 5649 5649 5648 5647 5646 5644 5641 5639 5634 5634 5635 5636 5635 5634 5633 5632 5632 5631 5630
5662 5661 5660 5660 5659 5658 5657 5657 5657 5657 5657 5656 5655 5654 5653 5652 5652 5650 5649 5648 5647 5646 5646 5645 5645 5645 5643 5642 5640 5639 5637 5636 5633 5630 5630 5630 5630 5630 5629 5628 5627 5626 5625
5656 5656 5654 5654 5653 5652 5652 5652 5652 5652 5651 5651 5650 5649 5648 5648 5647 5645 5644 5643 5643 5642 5642 5641 5640 5639 5637 5636 5635 5634 5633 5633 5630 5628 5626 5626 5625 5624 5623 5622 5622 5621 5621
5651 5649 5648 5647 5646 5646 5646 5646 5646 5645 5645 5645 5644 5644 5643 5642 5641 5640 5639 5638 5637 5637 5637 5637 5636 5635 5634 5633 5632 5630 5629 5627 5625 5623 5621 5620 5619 5618 5617 5616 5615 5615 5615
5645 5643 5641 5641 5640 5639 5639 5639 5639 5639 5639 5639 5638 5637 5636 5636 5635 5634 5634 5633 5632 5631 5632 5631 5631 5631 5631 5630 5629 5626 5624 5621 5619 5617 5615 5613 5612 5611 5611 5611 5610 5609 5609
5638 5636 5636 5634 5633 5633 5632 5632 5632 5631 5631 5631 5630 5630 5629 5630 5630 5629 5628 5627 5626 5625 5625 5625 5626 5626 5625 5625 5624 5624 5621 5618 5615 5612 5610 5608 5609 5608 5608 5607 5604 5602 5601
5633 5631 5629 5628 5626 5626 5626 5625 5624 5623 5623 5622 5622 5622 5621 5622 5623 5623 5622 5621 5619 5619 5618 5618 5619 5620 5619 5618 5617 5617 5616 5616 5615 5612 5609 5608 5606 5606 5604 5601 5599 5598 5599
5626 5624 5623 5621 5620 5619 5618 5617 5616 5615 5615 5614 5614 5614 5614 5614 5615 5615 5614 5613 5612 5611 5611 5611 5611 5612 5612 5611 5610 5609 5608 5609 5608 5608 5607 5606 5605 5603 5601 5600 5597 5595 5593
5620 5618 5617 5615 5614 5612 5611 5610 5609 5608 5607 5607 5606 5606 5606 5606 5607 5606 5606 5605 5604 5604 5605 5605 5604 5604 5605 5604 5602 5601 5601 5601 5602 5602 5602 5601 5600 5598 5596 5592 5588 5586 5585
5614 5613 5611 5609 5607 5606 5604 5603 5602 5601 5600 5599 5598 5598 5598 5598 5598 5598 5598 5597 5596 5596 5596 5597 5598 5598 5598 5597 5594 5593 5592 5593 5593 5593 5593 5593 5592 5591 5589 5587 5585 5581 5579
5609 5607 5605 5603 5601 5599 5598 5596 5595 5594 5592 5591 5590 5590 5589 5589 5590 5590 5589 5589 5588 5588 5588 5588 5589 5590 5590 5589 5588 5587 5587 5587 5585 5585 5584 5584 5584 5583 5582 5581 5581 5579 5576
5601 5599 5598 5596 5594 5593 5590 5588 5587 5585 5583 5582 5581 5580 5580 5581 5581 5582 5582 5581 5581 5580 5580 5581 5582 5582 5583 5582 5581 5581 5581 5579 5577 5576 5575 5575 5575 5576 5576 5575 5575 5574 5574
5592 5590 5588 5587 5585 5584 5582 5579 5577 5576 5574 5573 5572 5571 5571 5572 5572 5573 5573 5573 5573 5572 5572 5573 5574 5574 5574 5574 5574 5573 5572 5570 5568 5567 5567 5568 5568 5569 5568 5568 5567 5567 5566
5584 5581 5579 5577 5575 5574 5573 5571 5569 5567 5566 5565 5564 5564 5563 5563 5563 5564 5564 5564 5564 5563 5563 5564 5565 5565 5565 5565 5565 5564 5563 5562 5561 5561 5561 5561 5560 5559 5559 5559 5558 5557 5555
5576 5573 5570 5568 5566 5564 5563 5562 5561 5560 5559 5557 5556 5556 5555 5555 5557 5557 5557 5556 5556 5556 5556 5555 5554 5554 5554 5554 5554 5555 5554 5554 5553 5553 5553 5552 5551 5551 5550 5550 5549 5548 5546
5567 5564 5562 5559 5557 5555 5553 5552 5552 5552 5552 5551 5551 5549 5549 5550 5550 5549 5549 5550 5550 5549 5547 5545 5545 5544 5544 5545 5545 5545 5545 5545 5545 5545 5545 5544 5544 5543 5542 5541 5540 5539 5538
5560 5557 5554 5551 5549 5547 5545 5543 5542 5542 5542 5542 5542 5542 5542 5542 5541 5541 5541 5541 5541 5540 5538 5537 5537 5536 5536 5536 5536 5536 5537 5537 5537 5536 5536 5536 5535 5534 5533 5532 5531 5529 5529
5553 5550 5547 5544 5541 5539 5537 5536 5534 5533 5531 5531 5533 5533 5533 5533 5532 5532 5531 5531 5529 5528 5527 5528 5528 5528 5527 5527 5527 5527 5528 5528 5528 5527 5526 5525 5525 5524 5523 5522 5521 5520 5519
5544 5542 5539 5536 5533 5531 5529 5527 5525 5524 5523 5523 5522 5523 5524 5523 5523 5522 5521 5519 5518 5517 5517 5517 5518 5518 5518 5518 5518 5518 5518 5518 5518 5518 5517 5516 5515 5514 5513 5512 5511 5510 5509
5536 5534 5531 5527 5524 5521 5519 5517 5516 5514 5514 5513 5513 5513 5512 5511 5510 5510 5509 5508 5508 5508 5507 5507 5508 5508 5508 5508 5508 5508 5508 5508 5508 5507 5506 5505 5504 5503 5503 5502 5501 5499 5499
5527 5524 5523 5519 5515 5513 5510 5509 5507 5506 5505 5504 5504 5504 5503 5501 5500 5500 5499 5498 5498 5498 5498 5498 5498 5498 5498 5498 5498 5498 5498 5498 5498 5497 5496 5495 5494 5492 5491 5490 5490 5489 5488
5517 5514 5511 5509 5506 5504 5502 5500 5499 5497 5496 5495 5494 5494 5493 5491 5490 5489 5489 5489 5489 5489 5488 5488 5488 5488 5488 5488 5488 5488 5488 5487 5487 5487 5486 5484 5483 5482 5481 5479 5478 5478 5477
5508 5505 5502 5499 5497 5495 5493 5491 5489 5488 5487 5486 5485 5483 5482 5481 5480 5479 5478 5479 5478 5478 5478 5478 5477 5477 5478 5478 5478 5477 5477 5477 5477 5476 5475 5474 5473 5472 5470 5469 5468 5468 5467
5498 5495 5493 5490 5487 5485 5483 5482 5480 5479 5478 5476 5475 5474 5472 5471 5470 5469 5469 5468 5468 5467 5467 5467 5467 5467 5467 5467 5467 5466 5466 5466 5466 5466 5465 5464 5462 5461 5460 5459 5458 5458 5457
5488 5485 5483 5480 5478 5476 5474 5472 5470 5469 5468 5467 5466 5464 5463 5461 5460 5460 5459 5458 5457 5457 5456 5456 5456 5456 5456 5456 5456 5455 5455 5455 5455 5454 5454 5453 5452 5451 5450 5449 5449 5448 5447
5478 5476 5473 5470 5468 5466 5464 5462 5460 5459 5457 5457 5456 5454 5453 5452 5451 5450 5449 5448 5447 5446 5446 5446 5445 5445 5445 5445 5445 5445 5444 5444 5444 5443 5443 5442 5442 5441 5440 5439 5439 5438 5437